Find Zhongwei 1

NORAD ID: 25354 Int'l Des: 1998-033 Owner: CHORI Country: CN operational
HEOCIRCULAR

Live Position

Loading 3D Globe...

About Zhongwei 1

Description loading...

Upcoming Passes

Passes for default location (London). Set your location on the main map for personalized predictions.

Altitude History

Loading altitude history...

Two-Line Element Set

1 25354U 98033A 26106.92085221 .00000002 00000-0 00000-0 0 9998
2 25354 8.8131 61.6119 0003350 188.6355 192.0608 0.98990520 45336
Epoch: Apr 16, 2026 • Age: 5 hours

Current Status

Altitude 36149.5 km
Velocity 3.06 km/s
Sub-Earth Point 8.77°N, 95.21°W
Launch Date May 30, 1998
Age 27.8 years
Type other

Technical Details

Classification Payload
Mass 2917.00 kg
Dry Mass 1200.00 kg
Total Mass 2917.00 kg
Length 4.50 m
Diameter 2.50 m
Span 21.00 m
Shape Box + 2 Pan
Manufacturer LMEW
Bus Type A2100
Phase Status Renamed
Owner/State CHORI/CN

Most Searched